Location: Coopersdale
(40.3556°N, 78.9372°W)
Time: 19:33:42
(UTC+00:00)

Transit 4A - Pass Details

Date: 23 January 2021
Orbit: 866 x 978 km, 66.8° (Epoch: 26 February)

Event Time Altitude Azimuth Distance (km) Brightness Sun altitude
Rises 00:14:15 0° 201° (SSW) 3,650 11.4 -21.2°
Reaches altitude 10° 00:16:47 10° 200° (SSW) 2,713 10.7 -21.6°
Maximum altitude 00:23:08 74° 116° (ESE) 1,016 7.9 -22.8°
Enters shadow 00:25:49 37° 40° (NE) 1,475 8.6 -23.3°
Drops below altitude 10° 00:29:31 10° 33° (NNE) 2,724 - -24.0°
Sets 00:32:04 0° 32° (NNE) 3,666 - -24.5°
